Weather observations for the past three days for
Louisa, Louisa County Airport/Freeman Field
Imperial (Metric)
Date Time (edt) Wind (mph) Vis. (mi.) Weather Sky Cond. Temperature (ºF) Relative Humidity Wind Chill (°F) Heat Index (°F) Pressure Precipitation (in)
Air Dwpt 6 hour altimeter (in) sea level (mb) 1 hr 3 hr 6 hr
Max. Min.
19 17:55 SE 8 10.00 Partly Cloudy SCT045 84 67.1 57% 87 30.09 0.0
19 17:35 SE 7 10.00 Fair CLR 84.7 67.3 56% 88 30.09 0.0
19 17:15 E 6 10.00 Partly Cloudy SCT070 84.6 66 54% 87 30.09 0.0
19 16:55 E 6 10.00 Mostly Cloudy SCT070 BKN100 84.9 66.6 54% 87 30.09 0.0
19 16:35 E 3 10.00 Mostly Cloudy SCT070 BKN100 82.6 68.7 63% 86 30.09 0.0
19 16:15 SE 5 10.00 Mostly Cloudy SCT040 SCT060 BKN100 81.9 67.1 61% 84 30.11 0.0
19 15:55 E 5 10.00 Partly Cloudy SCT042 SCT060 SCT110 83.3 66.2 56% 86 30.11 0.0
19 15:15 SE 5 10.00 Mostly Cloudy SCT040 BKN065 BKN070 84.2 65.1 53% 86 30.12 0.0
19 14:55 E 3 10.00 Overcast SCT036 BKN065 OVC110 83.3 66.6 57% 86 30.12 0.0
19 14:35 E 5 10.00 Overcast SCT036 BKN060 OVC095 81.7 66.2 60% 84 30.13 0.0
19 14:15 SE 5 10.00 Overcast SCT037 BKN045 OVC060 81.1 68.2 65% 84 30.13 0.0
19 13:55 E 6 10.00 Overcast BKN037 BKN043 OVC085 82.4 67.1 83.1 70 60% 85 30.14 0.0
19 13:35 NE 3 10.00 Overcast SCT031 BKN060 OVC110 82.9 68 61% 86 30.15 0.0
19 13:15 E 3 10.00 Overcast BKN031 BKN044 OVC095 79.7 68 68% 82 30.15 0.0
19 12:55 NE 7 10.00 Overcast SCT034 BKN070 OVC085 80.4 68.5 67% 83 30.15 0.0
19 12:35 E 6 10.00 Overcast SCT032 BKN060 OVC080 79.7 68 68% 82 30.15 0.0
19 12:15 E 7 10.00 Mostly Cloudy SCT030 SCT042 BKN050 82.8 68.9 63% 86 30.15 0.0
19 11:55 N 3 10.00 Partly Cloudy SCT030 SCT037 SCT090 82 68.4 63% 85 30.15 0.0
19 11:15 N 5 10.00 Mostly Cloudy SCT027 BKN033 BKN100 79.7 67.5 66% 82 30.15 0.0
19 10:55 N 3 10.00 Overcast SCT025 OVC110 78.4 67.5 69% 81 30.14 0.0
19 10:35 NE 7 10.00 Mostly Cloudy SCT025 BKN110 77.9 66.7 69% 80 30.15 0.0
19 10:15 N 7 10.00 Mostly Cloudy BKN110 77.4 66.6 69% 79 30.14 0.0
19 09:55 NE 7 10.00 Overcast OVC110 77.2 66.7 70% 79 30.14 0.0
19 09:35 N 9 10.00 Overcast OVC110 75.9 65.5 70% 78 30.14 0.0
19 09:15 NE 7 10.00 Mostly Cloudy BKN110 75.4 64.8 70% 77 30.14 0.0
19 08:55 N 6 10.00 Overcast OVC110 73.6 64 72% 30.14 0.0
19 08:35 N 6 10.00 Overcast OVC110 72.7 64 74% 30.13 0.0
19 08:15 N 5 10.00 Overcast OVC110 70.5 63.9 80% 30.12 0.0
19 07:55 N 6 10.00 Overcast OVC110 69.6 63.7 69.8 64.2 82% 30.12 0.0
19 07:35 N 6 10.00 Overcast OVC110 68.4 63.9 86% 30.12 0.0
19 07:15 N 6 10.00 Mostly Cloudy BKN110 68.2 63.9 86% 30.11 0.0
19 06:55 N 6 10.00 Fair CLR 67.6 64.2 89% 30.1 0.0
19 06:35 NW 6 10.00 Partly Cloudy SCT100 67.1 64 90% 30.09 0.0
19 06:15 N 6 10.00 Partly Cloudy SCT100 67.3 64.2 90% 30.08 0.0
19 05:55 N 6 10.00 Fair CLR 67.5 64.8 91% 30.07 0.0
19 05:35 N 5 10.00 Fair CLR 66.9 65.7 96% 30.06 0.0
19 05:15 N 6 10.00 Fair CLR 67.5 65.8 95% 30.06 0.0
19 04:55 N 6 10.00 Fair CLR 67.8 65.7 93% 30.06 0.0
19 04:35 N 3 7.00 Fog/Mist CLR 64.9 64.4 98% 30.05 0.0
19 04:15 N 3 4.00 Fog/Mist SCT070 64.8 64.4 99% 30.04 0.0
19 03:55 Calm 7.00 Fog/Mist BKN070 65.1 64.8 99% 30.04 0.0
19 03:35 Calm 7.00 Fog/Mist BKN070 65.1 64.6 98% 30.04 0.0
19 03:15 NW 3 5.00 Fog/Mist SCT070 65.5 64.9 98% 30.04 0.0
19 02:55 Calm 10.00 Fair CLR 66.2 65.1 96% 30.04 0.0
19 02:35 N 3 7.00 Mostly Cloudy BKN075 66.2 65.1 96% 30.04 0.0
19 02:15 N 6 7.00 Mostly Cloudy BKN075 66 65.7 99% 30.05 0.0
19 01:55 N 3 7.00 Fog/Mist CLR 65.5 64.9 78.4 65.1 98% 30.05 0.0
19 01:35 Calm 5.00 Fog/Mist CLR 65.7 65.1 98% 30.05 0.0
19 01:15 Calm 7.00 Partly Cloudy SCT085 66.2 65.7 98% 30.05 0.0
19 00:55 Calm 10.00 Mostly Cloudy BKN085 BKN100 66.4 65.7 98% 30.05 0.0
19 00:35 Calm 10.00 Mostly Cloudy BKN085 66.6 65.8 98% 30.05 0.0
19 00:15 Calm 7.00 Partly Cloudy SCT085 66.9 66.2 98% 30.04 0.0
18 23:55 Calm 10.00 Fair CLR 67.3 66.6 98% 30.04 0.0
18 23:35 Calm 10.00 Partly Cloudy SCT110 68.2 67.1 96% 30.04 0.0
18 23:15 Calm 10.00 Mostly Cloudy BKN110 68.4 67.3 96% 30.03 0.0
18 22:55 Calm 10.00 Mostly Cloudy BKN110 69.4 67.8 95% 30.03 0.0
18 22:35 NW 3 10.00 Overcast BKN090 OVC120 70.2 68.2 93% 30.03 0.0
18 22:15 Calm 10.00 Overcast OVC090 70.2 67.8 92% 30.03 0.0
18 21:55 Calm 10.00 Mostly Cloudy BKN100 BKN120 70 67.6 92% 30.02 0.0
18 21:35 Calm 10.00 Overcast SCT100 OVC120 70.7 67.8 91% 30.02 0.0
18 21:15 Calm 10.00 Overcast BKN100 OVC120 73.9 67.1 79% 30.02 0.0
18 20:55 Calm 10.00 Partly Cloudy SCT110 71.2 67.8 89% 30.01 0.0
18 20:35 Calm 10.00 Partly Cloudy SCT090 72.9 68.2 85% 30 0.0
18 20:15 Calm 10.00 Fair CLR 77 66.4 70% 79 29.99 0.0
18 19:55 NE 6 10.00 Fair CLR 78.6 66.4 83.1 76.3 66% 81 29.98 0.0
18 19:35 NE 6 10.00 Fair CLR 79.7 66.9 65% 82 29.97 0.0
18 19:15 N 6 10.00 Fair CLR 79.3 65.5 63% 81 29.96 0.0
18 18:55 N 7 10.00 Fair CLR 80.2 65.3 60% 82 29.95 0.0
18 18:35 N 7 10.00 Fair CLR 80.4 67.1 64% 83 29.94 0.0
18 18:15 N 6 10.00 Fair CLR 80.4 66.9 64% 83 29.95 0.0
18 17:55 N 6 10.00 Fair CLR 80.8 66.6 62% 83 29.95 0.0
18 17:35 NE 6 10.00 Partly Cloudy SCT029 82.4 67.1 60% 85 29.96 0.0
18 17:15 N 8 10.00 Partly Cloudy SCT027 82.4 68.9 64% 86 29.96 0.0
18 16:55 N 7 10.00 Partly Cloudy SCT024 SCT120 81.9 69.6 67% 85 29.96 0.0
18 16:35 Calm 0.00 NULL NULL 82.4 69.8 66% 86 0 0.0
18 16:15 N 9 10.00 Mostly Cloudy BKN120 80.6 69.8 70% 84 29.96 0.0
18 15:55 N 9 10.00 Partly Cloudy SCT120 81 70.7 71% 85 29.96 0.0
18 15:35 N 8 10.00 Partly Cloudy SCT120 79.9 70.5 73% 83 29.97 0.0
18 15:15 N 7 10.00 Mostly Cloudy BKN110 79.2 71.2 77% 82 29.97 0.0
18 14:55 N 7 10.00 Overcast SCT035 OVC110 78.4 71.2 79% 81 29.98 0.0
18 14:35 NW 6 10.00 Light Rain SCT034 BKN075 OVC110 77.9 70.5 78% 80 29.99 0.0
18 14:15 NE 5 10.00 Light Rain SCT048 SCT070 OVC100 77.5 70.9 80% 79 29.98 0.0
18 13:55 NE 3 10.00 Light Rain OVC110 76.1 71.8 84 72.3 87% 77 29.99 0.0 0.02 0.02
18 13:35 NE 3 10.00 Rain OVC110 77.2 69.1 76% 79 29.99 0.0
18 13:15 N 6 10.00 Light Rain SCT060 SCT070 OVC100 78.8 68 70% 81 29.98 0.0
18 12:55 N 9 10.00 Mostly Cloudy BKN100 BKN120 80.6 66.6 62% 83 29.98 0.0
18 12:35 N 10 10.00 Partly Cloudy SCT120 82.8 67.6 60% 86 29.98 0.0
18 12:15 N 12 10.00 Fair CLR 83.7 67.6 59% 87 29.97 0.0
18 11:55 N 9 10.00 Partly Cloudy SCT095 83.3 67.8 60% 86 29.97 0.0
18 11:35 N 7 10.00 Fair CLR 82.6 68.2 62% 86 29.97 0.0
18 11:15 N 8 10.00 Fair CLR 82 69.3 65% 86 29.97 0.0
18 10:55 NE 8 10.00 Fair CLR 81.5 70.5 69% 85 29.97 0.0
18 10:35 N 9 10.00 Mostly Cloudy SCT019 BKN090 79.7 71.2 75% 83 29.98 0.0
18 10:15 N 6 10.00 Mostly Cloudy SCT020 BKN090 78.3 70.3 77% 81 29.98 0.0
18 09:55 NE 9 10.00 Partly Cloudy SCT090 SCT120 78.3 70 76% 81 29.97 0.0
18 09:35 E 6 10.00 Partly Cloudy SCT090 77.9 72.3 83% 80 29.97 0.0
18 09:15 NE 3 10.00 Partly Cloudy SCT004 SCT100 76.1 72.9 90% 76 29.96 0.0
18 08:55 NE 5 10.00 Mostly Cloudy BKN004 74.8 72.3 92% 29.97 0.0
18 08:35 N 3 10.00 Overcast OVC004 73.9 72.1 94% 29.96 0.0
18 08:15 Calm 10.00 Overcast OVC004 73 71.8 96% 29.96 0.0
18 07:55 Calm 7.00 Overcast OVC004 72.3 71.4 72.9 70.5 97% 29.96 0.0
18 07:35 Calm 10.00 Overcast OVC004 72.1 71.4 98% 29.95 0.0
18 07:15 SE 3 10.00 Overcast OVC004 71.6 71.1 98% 29.94 0.0
18 06:55 SE 3 10.00 Overcast BKN004 OVC055 71.2 70.7 98% 29.93 0.0
18 06:35 Calm 10.00 Mostly Cloudy SCT004 BKN055 71.1 70.5 98% 29.93 0.0
18 06:15 Calm 7.00 Fair CLR 70.7 70.3 99% 29.91 0.0
18 05:55 Calm 10.00 Fair CLR 70.9 70.3 98% 29.91 0.0
18 05:35 Calm 10.00 Fair CLR 71.2 70.5 98% 29.9 0.0
18 05:15 Calm 10.00 Partly Cloudy SCT007 71.1 70.3 98% 29.89 0.0
18 04:55 Calm 10.00 Partly Cloudy SCT005 71.2 70.5 98% 29.89 0.0
18 04:35 W 3 10.00 Fair CLR 71.6 71.6 100% 29.89 0.0
18 04:15 S 3 10.00 Fair CLR 71.8 70.9 97% 29.88 0.0
18 03:55 SW 3 10.00 Fair CLR 71.8 70.9 97% 29.88 0.0
18 03:35 Calm 10.00 Fair CLR 71.8 70.9 97% 29.88 0.0
18 03:15 SW 3 10.00 Fair CLR 71.8 70.9 97% 29.88 0.0
18 02:55 Calm 10.00 Fair CLR 71.2 70.7 98% 29.89 0.0
18 02:35 Calm 10.00 Fair CLR 71.2 70.5 98% 29.89 0.0
18 02:15 Calm 10.00 Fair CLR 71.8 70.9 97% 29.9 0.0
18 01:55 Calm 10.00 Fair CLR 72.5 71.1 73.4 71.8 95% 29.91 0.0
18 01:35 N 6 10.00 Partly Cloudy SCT065 SCT070 72.7 71.1 95% 29.9 0.0
18 01:15 N 8 10.00 Overcast OVC065 72.7 71.1 95% 29.91 0.0
18 00:55 SW 7 10.00 Mostly Cloudy SCT047 SCT065 BKN120 71.8 70.9 97% 29.9 0.0
18 00:35 SW 3 10.00 Partly Cloudy SCT120 72 70.9 96% 29.9 0.0
18 00:15 SW 3 10.00 Fair CLR 71.8 70.9 97% 29.91 0.0
17 23:55 SW 3 10.00 Partly Cloudy SCT100 72.1 70.7 95% 29.9 0.0
17 23:35 SW 6 10.00 Fair CLR 72.1 70.7 95% 29.9 0.0
17 23:15 W 3 10.00 Partly Cloudy SCT095 SCT120 72 70.5 95% 29.9 0.0
17 22:35 W 5 10.00 Overcast OVC095 72.1 70.7 95% 29.91 0.0
17 22:15 SW 5 10.00 Overcast OVC095 72.1 70.9 96% 29.91 0.0
17 21:55 SW 7 10.00 Overcast OVC095 72.1 70.9 96% 29.91 0.0
17 21:35 S 6 10.00 Overcast OVC095 72.3 71.1 96% 29.91 0.0
17 21:15 SW 5 10.00 Partly Cloudy SCT095 72.5 71.1 95% 29.9 0.0
17 20:55 SW 5 10.00 Fair CLR 72.7 71.4 96% 29.88 0.0
17 20:35 SW 6 10.00 Fair CLR 72.7 71.4 96% 29.87 0.0
17 20:15 S 3 10.00 Thunderstorm in Vicinity CLR 73.2 71.2 94% 29.86 0.0
17 19:55 S 3 10.00 Fair CLR 73 71.2 94.5 71.4 94% 29.87 0.0 0.06
17 19:35 SW 8 10.00 Fair CLR 73 71.2 94% 29.88 0.0
17 19:15 Calm 10.00 Partly Cloudy SCT080 72.3 71.1 96% 29.87 0.0
17 18:55 SW 6 10.00 Thunderstorm in Vicinity SCT050 BKN080 BKN095 71.8 70.5 96% 29.88 0.0 0.01
17 18:35 Calm 10.00 Partly Cloudy SCT070 SCT095 72.9 70 91% 29.86 0.0 0.01
17 18:15 N 7 10.00 Partly Cloudy SCT055 SCT070 SCT120 72.1 70.5 95% 29.85 0.0 0.01
17 17:55 Calm 10.00 Thunderstorm Rain in Vicinity SCT050 SCT070 SCT120 71.6 68.9 91% 29.85 0.0 0.05
17 17:35 SW 10 G 30 7.00 Thunderstorm Heavy Rain Fog/Mist SCT050 SCT070 BKN090 72.7 68.5 87% 29.88 0.0 0.04
17 17:15 SW 8 10.00 Thunderstorm in Vicinity SCT100 SCT120 89.1 71.4 56% 96 29.84 0.0
17 16:55 S 9 10.00 Fair CLR 91.2 72.5 54% 99 29.81 0.0
17 16:35 SE 8 10.00 Partly Cloudy SCT049 93.9 72.1 49% 102 29.82 0.0
17 16:15 S 8 10.00 Fair CLR 93.2 71.2 49% 100 29.83 0.0
17 15:55 S 9 G 16 10.00 Fair CLR 93.6 68.7 44% 99 29.84 0.0
17 15:35 S 13 G 20 10.00 Fair CLR 93.7 69.1 45% 99 29.85 0.0
17 15:15 S 6 10.00 Partly Cloudy SCT050 SCT110 93.7 69.6 45% 100 29.86 0.0
17 14:55 S 8 10.00 Mostly Cloudy SCT050 BKN110 91.8 69.1 48% 97 29.87 0.0
17 14:35 SW 5 10.00 Mostly Cloudy SCT050 BKN110 91 71.4 53% 98 29.87 0.0
17 14:15 S 3 10.00 Partly Cloudy SCT050 93.7 71.4 48% 101 29.87 0.0
17 13:55 S 6 10.00 Fair CLR 92.5 72 93.9 76.8 51% 100 29.88 0.0
17 13:35 Calm 10.00 Fair CLR 92.7 70.5 49% 99 29.88 0.0
17 13:15 SW 3 10.00 Fair CLR 92.3 70.9 50% 99 29.89 0.0
17 12:55 S 6 10.00 Fair CLR 91.8 70.9 51% 98 29.9 0.0
17 12:35 S 5 10.00 Fair CLR 90.7 71.4 53% 98 29.9 0.0
17 12:15 S 6 10.00 Fair CLR 90.5 72.1 55% 98 29.91 0.0
17 11:55 S 6 10.00 Fair CLR 90 72.5 57% 98 29.91 0.0
17 11:35 SW 6 10.00 Fair CLR 89.2 71.1 55% 95 29.92 0.0
17 11:15 Calm 10.00 Fair CLR 88.3 70.9 56% 94 29.91 0.0
17 10:55 Calm 10.00 Fair CLR 88 70.9 57% 94 29.92 0.0
17 10:35 W 6 10.00 Fair CLR 87.3 70.3 57% 92 29.92 0.0
17 10:15 W 3 10.00 Fair CLR 86.7 71.4 60% 93 29.93 0.0
17 09:55 W 6 10.00 Fair CLR 84.9 69.8 61% 89 29.92 0.0
17 09:35 W 5 10.00 Fair CLR 84.4 70.5 63% 89 29.93 0.0
17 09:15 SW 5 10.00 Fair CLR 82.8 70.9 67% 87 29.93 0.0
17 08:35 SW 5 10.00 Fair CLR 79.9 70.2 72% 83 29.94 0.0
17 08:15 SW 5 10.00 Fair CLR 78.3 70 76% 81 29.93 0.0
17 07:55 SW 3 10.00 Fair CLR 76.8 69.6 78.3 73.4 79% 78 29.93 0.0
17 07:35 SW 3 10.00 Fair CLR 75.2 69.3 82% 76 29.93 0.0
17 07:15 SW 5 10.00 Fair CLR 74.5 68.7 82% 29.91 0.0
17 06:55 SW 6 10.00 Fair CLR 73.9 68.5 83% 29.9 0.0
17 06:35 SW 3 10.00 Fair CLR 73.4 68.4 84% 29.9 0.0
17 06:15 SW 3 10.00 Fair CLR 73.9 68.2 82% 29.89 0.0
17 05:55 S 5 10.00 Fair CLR 74.1 68.2 82% 29.89 0.0
17 05:35 SW 5 10.00 Fair CLR 74.8 68.2 80% 29.88 0.0
17 05:15 SW 3 10.00 Fair CLR 74.8 68.2 80% 29.88 0.0
17 04:55 SW 6 10.00 Fair CLR 75.7 68.2 77% 77 29.88 0.0
17 04:35 SW 3 10.00 Fair CLR 76.1 68.2 77% 77 29.87 0.0
17 04:15 SW 5 10.00 Fair CLR 76.6 68.2 75% 78 29.87 0.0
17 03:55 SW 5 10.00 Fair CLR 77.2 68 73% 79 29.86 0.0
17 03:35 SW 3 10.00 Fair CLR 76.8 67.8 74% 78 29.87 0.0
17 03:15 Calm 10.00 Fair CLR 76.6 67.6 74% 78 29.86 0.0
17 02:55 SW 5 10.00 Fair CLR 77.4 67.8 73% 79 29.86 0.0
17 02:35 SW 5 10.00 Fair CLR 77.7 68 72% 80 29.86 0.0
17 02:15 SW 3 10.00 Fair CLR 78.1 68.4 72% 80 29.87 0.0
17 01:55 SW 3 10.00 Fair CLR 78.1 68.4 89.4 76.6 72% 80 29.86 0.0
17 01:35 SW 3 10.00 Fair CLR 77.7 68.5 73% 80 29.88 0.0
17 01:15 S 5 10.00 Fair CLR 77 68.7 76% 79 29.88 0.0
17 00:55 Calm 10.00 Fair CLR 78.4 68.2 71% 81 29.87 0.0
17 00:35 S 5 10.00 Fair CLR 78.8 68.2 70% 81 29.87 0.0
17 00:15 S 3 10.00 Fair CLR 79.2 68.4 70% 82 29.88 0.0
16 23:55 W 3 10.00 Fair CLR 79.3 68.5 70% 82 29.88 0.0
16 23:35 W 5 10.00 Fair CLR 80.8 68.2 66% 84 29.89 0.0
16 23:15 W 6 10.00 Fair CLR 81.5 69.1 66% 85 29.89 0.0
16 22:55 Calm 10.00 Fair CLR 80.2 70 71% 83 29.88 0.0
16 22:35 SW 5 10.00 Fair CLR 83.3 69.1 62% 87 29.88 0.0
16 22:15 W 6 10.00 Fair CLR 84.9 69.4 60% 89 29.89 0.0
16 21:55 W 6 10.00 Partly Cloudy SCT070 86.5 73 64% 94 29.88 0.0
16 21:35 W 8 10.00 Partly Cloudy SCT070 86.7 74.5 67% 95 29.88 0.0
16 21:15 SW 7 10.00 Fair CLR 87.4 74.3 65% 96 29.87 0.0
16 20:55 SW 6 10.00 Fair CLR 88 73.4 62% 96 29.86 0.0
16 20:15 S 6 10.00 Fair CLR 89.1 72.5 58% 97 29.85 0.0
16 19:55 S 7 10.00 Fair CLR 89.6 72.9 97.3 89.6 58% 98 29.85 0.0
16 19:35 S 6 10.00 Fair CLR 90.7 72.9 56% 99 29.85 0.0
16 19:15 S 6 10.00 Fair CLR 92.1 72 52% 100 29.84 0.0
16 18:55 S 8 10.00 Fair CLR 92.1 71.2 51% 99 29.84 0.0
16 18:35 S 9 10.00 Fair CLR 93.6 71.6 49% 101 29.84 0.0
16 18:15 S 13 G 17 10.00 Fair CLR 94.5 71.6 48% 102 29.83 0.0
Date Time (edt) Wind (mph) Vis. (mi.) Weather Sky Cond. Air Dwpt Max. Min. Relative Humidity Wind Chill (°F) Heat Index (°F) altimeter (in) sea level (mb) 1 hr 3 hr 6 hr
6 hour
Temperature (ºF) Pressure Precipitation (in)